metlocid,date_time,avg_pressta,stddev_pressta,min_pressta,max_pressta,n_pressta,n_comments
FRSM,1/27/12,976.9166667,0.279310194,976,977,48,2
FRSM,1/28/12,976.9583333,0.614160388,976,978,96,0
FRSM,1/29/12,974.8333333,1.219720992,973,977,96,0
FRSM,1/30/12,970.4583333,0.766628527,970,972,96,0
FRSM,1/31/12,972.1666667,0.854297701,971,973,96,0
FRSM,2/1/12,969.0833333,1.157735236,968,972,96,0
FRSM,2/2/12,972.9583333,1.025123014,971,974,96,0
FRSM,2/3/12,974.1666667,0.749268649,973,975,96,0
FRSM,2/4/12,970.7083333,0.98319208,969,972,96,0
FRSM,2/5/12,974.1666667,1.708595401,972,977,96,0
FRSM,2/6/12,980.625,2.526699532,977,984,96,0
FRSM,2/7/12,989.3333333,2.165114154,985,991,96,0
FRSM,2/8/12,988.2916667,1.280761835,986,991,96,0
FRSM,2/9/12,984.5833333,0.495594628,984,985,96,0
FRSM,2/10/12,985.375,0.909019136,983,986,96,0
FRSM,2/11/12,978.875,2.380844609,975,983,96,0
FRSM,2/12/12,977.2916667,2.790648544,974,983,96,0
FRSM,2/13/12,991.0416667,4.443603722,984,998,96,0
FRSM,2/14/12,997.7916667,1.29709527,996,999,96,0
FRSM,2/15/12,993.8333333,1.032795559,992,996,96,0
FRSM,2/16/12,988.9166667,1.00175285,988,991,96,0
FRSM,2/17/12,988.4583333,0.766628527,987,989,96,0
FRSM,2/18/12,983.0833333,1.327178778,981,986,96,0
FRSM,2/19/12,992.5416667,3.506134974,986,997,96,0
FRSM,2/20/12,994,2.427907915,990,997,96,0
FRSM,2/21/12,986.6666667,1.526376284,985,990,96,0
FRSM,2/22/12,982.5833333,0.643455583,981,984,96,0
FRSM,2/23/12,980.5833333,1.00175285,978,982,96,0
FRSM,2/24/12,974.875,0.931891116,974,977,96,0
FRSM,2/25/12,978,2.266460259,975,982,96,0
FRSM,2/26/12,984.5,0.767771896,983,985,96,0
FRSM,2/27/12,984,1.361114095,981,986,96,0
FRSM,2/28/12,980.0416667,0.893445921,979,981,96,0
FRSM,2/29/12,979,1.264911064,977,981,96,0
FRSM,3/1/12,981.0416667,0.45691567,980,982,96,0
FRSM,3/2/12,983.375,1.323869925,981,985,96,0
FRSM,3/3/12,983.125,1.058797729,982,985,96,0
FRSM,3/4/12,982,0.50262469,981,983,96,0
FRSM,3/5/12,982,0.710818653,981,983,96,0
FRSM,3/6/12,977.7083333,2.18085771,974,981,96,0
FRSM,3/7/12,971.375,0.954215026,970,973,96,0
FRSM,3/8/12,974,0,974,974,96,0
FRSM,3/9/12,975.875,1.544088898,974,978,96,0
FRSM,3/10/12,979.1666667,0.690791562,978,980,96,0
FRSM,3/11/12,977.2083333,0.500876425,977,979,96,0
FRSM,3/12/12,974.875,1.207433119,973,977,96,0
FRSM,3/13/12,976.9166667,2.169970491,974,980,96,0
FRSM,3/14/12,977.6666667,0.854297701,977,979,96,0
FRSM,3/15/12,977.4166667,0.495594628,977,978,96,0
FRSM,3/16/12,975.25,0.523148364,975,977,96,0
FRSM,3/17/12,976.4583333,1.360469475,975,979,96,0
FRSM,3/18/12,980.375,0.757419442,979,981,96,0
FRSM,3/19/12,979.125,1.24181531,976,980,96,0
FRSM,3/20/12,972.4583333,1.47909408,970,975,96,0
FRSM,3/21/12,975,3.83885948,970,981,96,0
FRSM,3/22/12,982,0.580381,981,983,96,0
FRSM,3/23/12,980.2083333,0.819713258,979,982,96,0
FRSM,3/24/12,983,1.085793428,981,984,96,0
FRSM,3/25/12,981,0.648885685,980,983,96,0
FRSM,3/26/12,980.0833333,1.690011938,977,982,96,0
FRSM,3/27/12,972.8333333,2.203665208,970,977,96,0
FRSM,3/28/12,968.4583333,0.70958352,967,970,96,0
FRSM,3/29/12,968.9166667,0.816496581,968,970,96,0
FRSM,3/30/12,972.9583333,1.464791465,970,976,96,0
FRSM,3/31/12,979.4166667,1.966384161,976,982,96,0
FRSM,4/1/12,985.5416667,1.588886844,983,987,96,0
FRSM,4/2/12,986.875,0.332454983,986,987,96,0
FRSM,4/3/12,987.0416667,0.200875278,987,988,96,0
FRSM,4/4/12,986.25,0.43528575,986,987,96,0
FRSM,4/5/12,983,1.667017507,980,985,96,0
FRSM,4/6/12,978.4583333,1.47909408,976,980,96,0
FRSM,4/7/12,975.2083333,1.084985245,974,977,96,0
FRSM,4/8/12,978.5416667,0.578867618,977,979,96,0
FRSM,4/9/12,982.9583333,1.868952235,980,985,96,0
FRSM,4/10/12,978.375,3.587258152,973,984,96,0
FRSM,4/11/12,970.8333333,0.902238931,970,973,96,0
FRSM,4/12/12,973.75,0.523148364,972,974,96,0
FRSM,4/13/12,967.1666667,2.911561949,963,973,96,0
FRSM,4/14/12,962.3333333,0.555672502,962,964,96,0
FRSM,4/15/12,967.1666667,2.507532512,964,972,96,0
FRSM,4/16/12,975.125,1.172042751,972,976,96,0
FRSM,4/17/12,973.5,0.710818653,973,975,96,0
FRSM,4/18/12,973.75,0.43528575,973,974,96,0
FRSM,4/19/12,971.4166667,0.705865153,971,973,96,0
FRSM,4/20/12,971.9583333,0.845005969,970,973,96,0
FRSM,4/21/12,966.0833333,1.587229739,963,970,96,0
FRSM,4/22/12,961.125,1.516575089,959,963,96,0
FRSM,4/23/12,968.4583333,4.696956835,960,974,96,0
FRSM,4/24/12,962.25,5.415377714,957,973,96,0
FRSM,4/25/12,960.4166667,2.189288116,957,964,96,0
FRSM,4/26/12,965.125,0.931891116,963,967,96,0
FRSM,4/27/12,972.375,3.109408473,967,977,96,0
FRSM,4/28/12,980.375,1.224744871,978,982,96,0
FRSM,4/29/12,975.25,1.337712108,974,979,96,0
FRSM,4/30/12,976.5,2.579269582,974,982,96,0
FRSM,5/1/12,982.75,1.569445091,979,984,96,0
FRSM,5/2/12,968.8333333,4.378576233,964,978,96,0
FRSM,5/3/12,962.25,1.486783883,960,964,96,0
FRSM,5/4/12,958.4166667,0.866531703,956,960,96,0
FRSM,5/5/12,958.7083333,2.18085771,956,963,96,0
FRSM,5/6/12,968.25,2.097617696,964,971,96,0
FRSM,5/7/12,967.4583333,0.578867618,966,968,96,0
FRSM,5/8/12,976.0833333,6.250333324,969,986,96,0
FRSM,5/9/12,991.375,1.530393826,987,993,96,0
FRSM,5/10/12,985.125,2.017032735,982,989,96,0
FRSM,5/11/12,988.125,1.370747011,986,990,96,0
FRSM,5/12/12,984.9166667,1.193549917,982,986,96,0
FRSM,5/13/12,980.75,0.72547625,979,982,96,0
FRSM,5/14/12,978.0833333,1.120776673,977,981,96,0
FRSM,5/15/12,983.25,1.23969436,981,985,96,0
FRSM,5/16/12,979.4166667,1.120776673,978,981,96,0
FRSM,5/17/12,981.75,2.741494022,978,985,96,0
FRSM,5/18/12,983.4166667,1.358533781,981,985,96,0
FRSM,5/19/12,976.0833333,3.042390565,971,981,96,0
FRSM,5/20/12,971.75,1.368825851,970,975,96,0
FRSM,5/21/12,978.4583333,1.534972427,975,980,96,0
FRSM,5/22/12,979.4166667,0.643455583,978,980,96,0
FRSM,5/23/12,972.1666667,3.878867623,965,978,96,0
FRSM,5/24/12,956.625,4.686486733,950,965,96,0
FRSM,5/25/12,958.875,7.256575965,950,971,96,0
FRSM,5/26/12,980,4.195235393,972,985,96,0
FRSM,5/27/12,980.8333333,3.227078414,976,986,96,0
FRSM,5/28/12,974,0.710818653,973,975,96,0
FRSM,5/29/12,971.2916667,2.453425818,967,974,96,0
FRSM,5/30/12,963.375,1.18986952,962,966,96,0
FRSM,5/31/12,965.375,0.757419442,964,966,96,0
FRSM,6/1/12,967.125,0.885556619,966,968,96,0
FRSM,6/2/12,963.875,1.401127366,962,967,96,0
FRSM,6/3/12,969.375,3.369366644,964,975,96,0
FRSM,6/4/12,976.3333333,1.286911167,973,978,96,0
FRSM,6/5/12,967.1666667,3.900517285,961,973,96,0
FRSM,6/6/12,962.8333333,2.83833408,960,968,96,0
FRSM,6/7/12,973.1666667,1.827662681,969,975,96,0
FRSM,6/8/12,981.75,4.831911467,975,990,96,0
FRSM,6/9/12,993.875,1.724437361,990,996,96,0
FRSM,6/10/12,992.5,1.615712325,990,995,96,0
FRSM,6/11/12,990.5,1.085793428,989,992,96,0
FRSM,6/12/12,994.9583333,1.846285983,992,997,96,0
FRSM,6/13/12,995.25,1.095445115,993,997,96,0
FRSM,6/14/12,986.7083333,5.836214827,974,994,96,0
FRSM,6/15/12,966.6666667,2.297214179,963,972,96,0
FRSM,6/16/12,972.0416667,3.559765417,967,977,96,0
FRSM,6/17/12,982.9166667,4.532146387,977,991,96,0
FRSM,6/18/12,988.6666667,2.940342503,983,992,96,0
FRSM,6/19/12,977.125,3.616482734,972,983,96,0
FRSM,6/20/12,965.6666667,3.227078414,960,971,96,0
FRSM,6/21/12,964.875,3.950349751,960,972,96,0
FRSM,6/22/12,973.2916667,1.89134687,970,976,96,0
FRSM,6/23/12,970.8333333,1.91760084,969,975,96,0
FRSM,6/24/12,978.0833333,0.816496581,976,979,96,0
FRSM,6/25/12,980,1.716790151,978,984,96,0
FRSM,6/26/12,988.4583333,2.495961651,984,992,96,0
FRSM,6/27/12,991.7083333,0.893445921,990,993,96,0
FRSM,6/28/12,991,0.962453006,990,993,96,0
FRSM,6/29/12,995.7916667,1.666491219,993,998,96,0
FRSM,6/30/12,1000.208333,0.86956331,999,1002,96,0
FRSM,7/1/12,996.4583333,0.647532428,996,998,96,0
FRSM,7/2/12,991.625,2.688180758,987,996,96,0
FRSM,7/3/12,985.2083333,0.578867618,984,986,96,0
FRSM,7/4/12,988.75,1.01566675,987,990,96,0
FRSM,7/5/12,983.875,2.484689963,980,988,96,0
FRSM,7/6/12,977.0833333,1.856236525,974,980,96,0
FRSM,7/7/12,972.5833333,1.082557077,971,975,96,0
FRSM,7/8/12,976.25,0.72547625,975,977,96,0
FRSM,7/9/12,972.6666667,1.75719074,970,976,96,0
FRSM,7/10/12,968.5833333,0.816496581,968,970,96,0
FRSM,7/11/12,968.9166667,0.574303545,968,970,96,0
FRSM,7/12/12,968.8333333,2.638447178,963,971,96,0
FRSM,7/13/12,961.5416667,0.961541161,960,963,96,0
FRSM,7/14/12,963,0,963,963,96,0
FRSM,7/15/12,963.9166667,0.816496581,963,965,96,0
FRSM,7/16/12,961.4583333,1.421020143,960,964,96,0
FRSM,7/17/12,960.4166667,0.574303545,959,961,96,0
FRSM,7/18/12,959.2083333,0.40824829,959,960,96,0
FRSM,7/19/12,963.1666667,2.278811632,960,966,96,0
FRSM,7/20/12,962.125,2.098871877,960,967,96,0
FRSM,7/21/12,964.875,2.803193667,960,968,96,0
FRSM,7/22/12,960,0,960,960,96,0
FRSM,7/23/12,959.7083333,0.614160388,959,961,96,0
FRSM,7/24/12,965.7083333,3.664672504,960,972,96,0
FRSM,7/25/12,972.75,1.59604775,970,975,96,0
FRSM,7/26/12,969.9166667,0.95880042,969,972,96,0
FRSM,7/27/12,971.0416667,0.893445921,970,972,96,0
FRSM,7/28/12,971.3333333,0.555672502,970,972,96,0
FRSM,7/29/12,967.0416667,2.554322103,963,971,96,0
FRSM,7/30/12,960.0416667,0.98319208,959,962,96,0
FRSM,7/31/12,964.0416667,2.570753183,960,969,96,0
FRSM,8/1/12,970.5416667,0.578867618,969,971,96,0
FRSM,8/2/12,972.4583333,2.302934817,970,977,96,0
FRSM,8/3/12,975.5,0.820782682,974,977,96,0
FRSM,8/4/12,971.375,3.202794832,967,976,96,0
FRSM,8/5/12,969,0.8705715,967,970,96,0
FRSM,8/6/12,971.75,2.449489743,967,975,96,0
FRSM,8/7/12,978.375,2.91367014,974,983,96,0
FRSM,8/8/12,982.5833333,1.193549917,981,985,96,0
FRSM,8/9/12,978.7916667,0.961541161,977,980,96,0
FRSM,8/10/12,982.625,2.424654072,978,986,96,0
FRSM,8/11/12,983.9583333,2.570753183,979,987,96,0
FRSM,8/12/12,972.625,3.668500339,966,978,96,0
FRSM,8/13/12,965.2083333,1.641030913,963,969,96,0
FRSM,8/14/12,965.9166667,3.137772145,960,969,96,0
FRSM,8/15/12,960.1666667,1.526376284,959,964,96,0
FRSM,8/16/12,967.8333333,3.367543745,964,975,96,0
FRSM,8/17/12,978.9166667,1.56047676,975,981,96,0
FRSM,8/18/12,975.4583333,1.534972427,972,977,96,0
FRSM,8/19/12,964.4583333,3.257110979,962,971,96,0
FRSM,8/20/12,965.1666667,1.350763267,963,967,96,0
FRSM,8/21/12,963.8333333,2.490684398,959,967,96,0
FRSM,8/22/12,964.4583333,3.94679528,959,972,96,0
FRSM,8/23/12,975.4583333,1.562162244,972,977,96,0
FRSM,8/24/12,969.75,2.195689557,967,974,96,0
FRSM,8/25/12,981.875,5.79155465,971,988,96,0
FRSM,8/26/12,984.125,2.327184882,980,988,96,0
FRSM,8/27/12,975.9583333,2.041241452,974,980,96,0
FRSM,8/28/12,976.625,1.920800272,974,979,96,0
FRSM,8/29/12,979,0.820782682,978,980,96,0
FRSM,8/30/12,977,1.924906013,974,980,96,0
FRSM,8/31/12,973.3333333,0.803501111,972,975,96,0
FRSM,9/1/12,979.375,2.187283824,975,982,96,0
FRSM,9/2/12,979.1666667,2.125864117,975,982,96,0
FRSM,9/3/12,971.4583333,1.641030913,970,975,96,0
FRSM,9/4/12,970.5416667,0.86956331,969,972,96,0
FRSM,9/5/12,973.4166667,0.643455583,972,974,96,0
FRSM,9/6/12,972.0833333,0.866531703,971,974,96,0
FRSM,9/7/12,975.2083333,0.647532428,974,976,96,0
FRSM,9/8/12,974.125,0.836660027,973,975,96,0
FRSM,9/9/12,970.3333333,0.991189256,969,972,96,0
FRSM,9/10/12,972.125,1.748683715,970,975,96,0
FRSM,9/11/12,975.8333333,0.947758204,974,977,96,0
FRSM,9/12/12,971.0416667,1.141713087,970,973,96,0
FRSM,9/13/12,966.375,1.736602854,964,969,96,0
FRSM,9/14/12,963.7083333,0.738656913,963,965,96,0
FRSM,9/15/12,968.7916667,1.360469475,966,970,96,0
FRSM,9/16/12,969.75,0.523148364,968,970,96,0
FRSM,9/17/12,966.2916667,1.065404956,965,968,96,0
FRSM,9/18/12,963.5416667,1.360469475,961,965,96,0
FRSM,9/19/12,960.5416667,1.391074304,959,963,96,0
FRSM,9/20/12,962.7083333,1.752692165,961,967,96,0
FRSM,9/21/12,973.9583333,4.098566288,967,981,96,0
FRSM,9/22/12,985.9583333,4.462514436,980,992,96,0
FRSM,9/23/12,988.5833333,3.924730408,982,993,96,0
FRSM,9/24/12,979.5833333,1.327178778,977,981,96,0
FRSM,9/25/12,974.2916667,1.464791465,972,977,96,0
FRSM,9/26/12,976.0833333,0.816496581,975,977,96,0
FRSM,9/27/12,976.5,0.648885685,975,977,96,0
FRSM,9/28/12,971.4583333,2.4101394,967,976,96,0
FRSM,9/29/12,962.625,2.299885581,958,966,96,0
FRSM,9/30/12,956.75,1.647965253,955,960,96,0
FRSM,10/1/12,965.2083333,2.24741567,961,968,96,0
FRSM,10/2/12,968.9166667,0.277836251,968,969,96,0
FRSM,10/3/12,970.3333333,0.749268649,969,971,96,0
FRSM,10/4/12,967.375,2.187283824,964,971,96,0
FRSM,10/5/12,962.7083333,0.679266891,962,964,96,0
FRSM,10/6/12,964.9583333,1.728502039,963,969,96,0
FRSM,10/7/12,971.8333333,1.219720992,969,973,96,0
FRSM,10/8/12,969.375,1.760681686,967,972,96,0
FRSM,10/9/12,963.75,1.59604775,961,966,96,0
FRSM,10/10/12,958.2916667,1.247453547,957,961,96,0
FRSM,10/11/12,963.125,2.13861736,959,965,96,0
FRSM,10/12/12,963.125,1.275270869,961,965,96,0
FRSM,10/13/12,964.7083333,1.752692165,962,967,96,0
FRSM,10/14/12,969.875,1.275270869,968,972,96,0
FRSM,10/15/12,972.2083333,0.647532428,971,973,96,0
FRSM,10/16/12,972.9166667,0.913831341,971,974,96,0
FRSM,10/17/12,977.4583333,2.209628055,974,981,96,0
FRSM,10/18/12,983.125,1.24181531,981,985,96,0
FRSM,10/19/12,982.4166667,2.545033002,977,985,96,0
FRSM,10/20/12,970.1666667,2.590129713,968,976,96,0
FRSM,10/21/12,972.5,2.266460259,969,976,96,0
FRSM,10/22/12,979.5833333,1.690011938,976,981,96,0
FRSM,10/23/12,980.2916667,0.45691567,980,981,96,0
FRSM,10/24/12,979.75,0.43528575,979,980,96,0
FRSM,10/25/12,979.5416667,0.819713258,977,980,96,0
FRSM,10/26/12,974.0833333,1.120776673,973,977,96,0
FRSM,10/27/12,979.25,2.741494022,975,983,96,0
FRSM,10/28/12,982.2916667,1.868952235,978,984,96,0
FRSM,10/29/12,974.2083333,1.507292216,973,978,96,0
FRSM,10/30/12,978.2916667,2.879753888,974,982,96,0
FRSM,10/31/12,982.5,0.50262469,982,983,96,0
FRSM,11/1/12,985.4583333,1.946206386,983,989,96,0
FRSM,11/2/12,990.5833333,0.705865153,989,991,96,0
FRSM,11/3/12,990.875,0.332454983,990,991,96,0
FRSM,11/4/12,990.3333333,0.690791562,989,991,96,0
FRSM,11/5/12,986.6666667,1.286911167,985,989,96,0
FRSM,11/6/12,985.9166667,0.95880042,984,987,96,0
FRSM,11/7/12,979.75,1.841052331,978,984,96,0
FRSM,11/8/12,984.625,3.551871264,979,990,96,0
FRSM,11/9/12,990.5833333,0.913831341,988,991,96,0
FRSM,11/10/12,984.4583333,1.329160136,983,987,96,0
FRSM,11/11/12,986.625,0.486664263,986,987,96,0
FRSM,11/12/12,989.2916667,1.247453547,987,991,96,0
FRSM,11/13/12,987.5,2.392972166,983,990,96,0
FRSM,11/14/12,980.625,0.636602826,980,982,96,0
FRSM,11/15/12,981.8333333,1.184697756,980,984,96,0
FRSM,11/16/12,986.4583333,1.880182895,984,990,96,0
FRSM,11/17/12,986.3333333,2.278811632,983,990,96,0
FRSM,11/18/12,982.5833333,0.574303545,982,984,96,0
FRSM,11/19/12,980.9583333,0.939391367,979,982,96,0
FRSM,11/20/12,978.6666667,0.626883128,978,980,96,0
FRSM,11/21/12,982.625,1.942597285,980,986,96,0
FRSM,11/22/12,986.875,1.058797729,986,989,96,0
FRSM,11/23/12,989.9583333,0.893445921,988,991,96,0
FRSM,11/24/12,983.7083333,1.868952235,982,988,96,0
FRSM,11/25/12,982.4166667,0.866531703,980,983,96,0
FRSM,11/26/12,978.9166667,1.477313826,977,982,96,0
FRSM,11/27/12,984.375,1.153940617,982,986,96,0
FRSM,11/28/12,985.9166667,0.643455583,985,987,96,0
FRSM,11/29/12,983.7916667,0.578867618,983,985,96,0
FRSM,11/30/12,981.2916667,0.738656913,980,983,96,0
FRSM,12/1/12,982.5833333,1.41916704,981,985,96,0
FRSM,12/2/12,986.2083333,0.500876425,985,987,96,0
FRSM,12/3/12,986,0.50262469,985,987,96,0
FRSM,12/4/12,982.2083333,1.045458013,981,985,96,0
FRSM,12/5/12,983.375,0.997364949,982,985,96,0
FRSM,12/6/12,984.7083333,0.45691567,984,985,96,0
FRSM,12/7/12,985,0,985,985,96,0
FRSM,12/8/12,986.0833333,0.277836251,986,987,96,0
FRSM,12/9/12,987.5833333,0.495594628,987,988,96,0
FRSM,12/10/12,987.7916667,0.578867618,987,989,96,0
FRSM,12/11/12,987.4166667,0.495594628,987,988,96,0
FRSM,12/12/12,983.7916667,1.615169319,982,987,96,0
FRSM,12/13/12,985.8333333,1.632993162,983,988,96,0
FRSM,12/14/12,988.7916667,0.40824829,988,989,96,0
FRSM,12/15/12,990.0416667,0.352932576,989,991,96,0
FRSM,12/16/12,990.9166667,0.401750555,990,992,96,0
FRSM,12/17/12,991.8333333,0.374634325,991,992,96,0
FRSM,12/18/12,992,0,992,992,96,0
FRSM,12/19/12,991.75,0.43528575,991,992,96,0
FRSM,12/20/12,993.0416667,0.45691567,992,994,96,0
FRSM,12/21/12,990.0833333,2.169970491,986,993,96,0
FRSM,12/22/12,983.0416667,1.178014982,982,986,96,0
FRSM,12/23/12,989.9166667,4.587549895,983,996,96,0
FRSM,12/24/12,995.5833333,0.866531703,994,997,96,0
FRSM,12/25/12,995,0,995,995,96,0
FRSM,12/26/12,995.1666667,0.555672502,994,996,96,0
FRSM,12/27/12,996.9166667,0.763188142,996,998,96,0
FRSM,12/28/12,993.7083333,1.313225572,992,996,96,0
FRSM,12/29/12,990.75,0.664909966,990,992,96,0
FRSM,12/30/12,989.1666667,0.374634325,989,990,96,0
FRSM,12/31/12,987.25,1.133230129,986,989,96,0
FRSM,1/1/13,988.875,1.370747011,987,991,96,0
FRSM,1/2/13,991.8333333,1.441247023,990,994,96,0
FRSM,1/3/13,996,1.046296728,994,997,96,0
FRSM,1/4/13,998.5416667,0.578867618,997,999,96,0
FRSM,1/5/13,995.2916667,2.293774947,991,999,96,0
FRSM,1/6/13,984.9583333,3.145311186,981,991,96,0
FRSM,1/7/13,982.625,1.474341958,981,985,96,0
FRSM,1/8/13,988.7916667,1.534972427,986,991,96,0
FRSM,1/9/13,988.875,0.976028472,987,991,96,0
FRSM,1/10/13,987.5833333,0.495594628,987,988,96,0
FRSM,1/11/13,984.5416667,1.764662882,982,987,96,0
FRSM,1/12/13,980.3333333,0.473879102,980,981,96,0
FRSM,1/13/13,980.5,0.50262469,980,981,96,0
FRSM,1/14/13,983.0833333,1.901061569,981,987,96,0
FRSM,1/15/13,991.2083333,1.691568358,987,993,96,0
FRSM,1/16/13,986.9583333,1.89134687,984,991,96,0
FRSM,1/17/13,983.75,0.973328527,983,986,96,0
FRSM,1/18/13,992.2083333,3.433324817,986,997,96,0
FRSM,1/19/13,996.9583333,0.45691567,996,998,96,0
FRSM,1/20/13,993.75,1.747178176,990,996,96,0
FRSM,1/21/13,987.875,0.885556619,987,990,96,0
FRSM,1/22/13,985.5,0.820782682,984,987,96,0
FRSM,1/23/13,981.2083333,1.740639124,978,984,96,0
FRSM,1/24/13,976.9583333,0.845005969,976,979,96,0
FRSM,1/25/13,984.1666667,3.24009963,979,989,96,0
FRSM,1/26/13,990.9166667,0.866531703,989,992,96,0
FRSM,1/27/13,987.9166667,0.495594628,987,989,96,0
FRSM,1/28/13,984.7083333,1.065404956,983,987,96,0
FRSM,1/29/13,981.375,0.636602826,981,983,96,0
FRSM,1/30/13,982.4583333,0.70958352,981,983,96,0
FRSM,1/31/13,983.9166667,0.866531703,983,985,96,0
FRSM,2/1/13,983.6666667,0.749268649,982,985,96,0
FRSM,2/2/13,982.125,0.332454983,982,983,96,0
FRSM,2/3/13,982,0,982,982,96,0
FRSM,2/4/13,979.875,1.097844779,978,982,96,0
FRSM,2/5/13,975.9166667,0.816496581,975,978,96,0
FRSM,2/6/13,974.9583333,0.200875278,974,975,96,0
FRSM,2/7/13,973.0833333,0.913831341,972,975,96,0
FRSM,2/8/13,971.9166667,0.277836251,971,972,96,0
FRSM,2/9/13,971.9583333,0.738656913,971,973,96,0
FRSM,2/10/13,975.0416667,1.313225572,973,977,96,0
FRSM,2/11/13,980.8333333,1.75719074,978,983,96,0
FRSM,2/12/13,983.9583333,0.200875278,983,984,96,0
FRSM,2/13/13,983.6666667,0.473879102,983,984,96,0
FRSM,2/14/13,981.9166667,0.495594628,981,983,96,0
FRSM,2/15/13,979.2916667,1.247453547,977,981,96,0
FRSM,2/16/13,974.7083333,1.464791465,972,977,96,0
FRSM,2/17/13,970.375,0.566615065,970,972,96,0
FRSM,2/18/13,974.875,2.327184882,971,979,96,0
FRSM,2/19/13,981.7083333,1.065404956,979,983,96,0
FRSM,2/20/13,976.7083333,2.698602627,973,981,96,0
FRSM,2/21/13,969.6666667,1.184697756,969,973,96,0
FRSM,2/22/13,969.125,0.332454983,969,970,96,0
FRSM,2/23/13,973.8333333,2.507532512,971,979,96,0
FRSM,2/24/13,982.125,1.172042751,979,983,96,0
FRSM,2/25/13,982.0833333,0.277836251,982,983,96,0
FRSM,2/26/13,980.125,1.430862824,977,982,96,0
FRSM,2/27/13,972.7083333,1.464791465,971,976,96,0
FRSM,2/28/13,973.9166667,1.533257054,972,976,96,0
FRSM,3/1/13,974.625,1.323869925,972,976,96,0
FRSM,3/2/13,971.75,0.598243042,971,973,96,0
FRSM,3/3/13,974.2916667,1.313225572,973,977,96,0
FRSM,3/4/13,979.5,1.391704748,977,981,96,0
FRSM,3/5/13,976,2.462348045,971,980,96,0
FRSM,3/6/13,964.6666667,2.369395511,962,970,96,0
FRSM,3/7/13,967.8333333,1.895516409,965,970,96,0
FRSM,3/8/13,969.7083333,0.679266891,969,971,96,0
FRSM,3/9/13,973.3333333,0.854297701,971,974,96,0
FRSM,3/10/13,970.875,0.931891116,970,973,96,0
FRSM,3/11/13,976.25,1.771113239,973,978,96,0
FRSM,3/12/13,978.125,1.430862824,977,981,96,0
FRSM,3/13/13,976.9166667,3.541235784,971,982,96,0
FRSM,3/14/13,969.7083333,1.313225572,968,973,96,0
FRSM,3/15/13,978.125,2.363093423,974,981,96,0
FRSM,3/16/13,978.2083333,1.967721989,975,981,96,0
FRSM,3/17/13,968.125,3.534044947,963,974,96,0
FRSM,3/18/13,960.875,1.45999279,958,963,96,0
FRSM,3/19/13,970.5,3.957670766,962,975,96,0
FRSM,3/20/13,972.5833333,1.810301904,970,975,96,0
FRSM,3/21/13,967.5833333,0.95880042,966,970,96,0
FRSM,3/22/13,969.375,2.068561667,967,973,96,0
FRSM,3/23/13,978.875,3.222454115,974,983,96,0
FRSM,3/24/13,981.875,0.976028472,980,984,96,0
FRSM,3/25/13,972.75,3.208541233,968,979,96,0
FRSM,3/26/13,966.0833333,0.913831341,965,968,96,0
FRSM,3/27/13,968.5416667,0.578867618,967,969,96,0
FRSM,3/28/13,967.25,1.952056945,963,969,96,0
FRSM,3/29/13,960.75,0.664909966,960,962,96,0
FRSM,3/30/13,964.0833333,3.600194926,961,972,96,0
FRSM,3/31/13,975.0416667,1.065404956,972,976,96,0
FRSM,4/1/13,973.0416667,2.082087347,969,976,96,0
FRSM,4/2/13,964.1666667,2.590129713,960,969,96,0
FRSM,4/3/13,955.1666667,2.507532512,952,960,96,0
FRSM,4/4/13,955.5,2.783409496,952,960,96,0
FRSM,4/5/13,964.5,1.858125824,961,966,96,0
FRSM,4/6/13,965,0.710818653,964,966,96,0
FRSM,4/7/13,970,2.19089023,967,974,96,0
FRSM,4/8/13,980.7083333,2.651381633,975,983,96,0
FRSM,4/9/13,978.7083333,2.77551955,973,983,96,0
FRSM,4/10/13,969.1666667,1.148607089,968,972,96,0
FRSM,4/11/13,972.0416667,0.541278538,971,973,96,0
FRSM,4/12/13,971.2083333,0.86956331,970,973,96,0
FRSM,4/13/13,969.5416667,0.647532428,969,971,96,0
FRSM,4/14/13,975.6666667,2.241553346,971,978,96,0
FRSM,4/15/13,979.25,1.59604775,978,983,96,0
FRSM,4/16/13,982.6666667,1.526376284,979,984,96,0
FRSM,4/17/13,972.3333333,3.174459479,969,979,96,0
FRSM,4/18/13,976.2916667,3.653164934,970,981,96,0
FRSM,4/19/13,978.9166667,1.193549917,977,981,96,0
FRSM,4/20/13,972.9583333,1.575581207,971,976,96,0
FRSM,4/21/13,974.875,1.623835615,973,978,96,0
FRSM,4/22/13,981.375,1.474341958,978,983,96,0
FRSM,4/23/13,982.8333333,0.991189256,981,984,96,0
FRSM,4/24/13,977.7916667,2.112203472,975,982,96,0
FRSM,4/25/13,976.0416667,1.141713087,974,978,96,0
FRSM,4/26/13,972.5,0.648885685,972,974,96,0
FRSM,4/27/13,972.0833333,0.277836251,972,973,96,0
FRSM,4/28/13,975.5416667,1.902445333,973,979,96,0
FRSM,4/29/13,981.2083333,0.916706538,979,982,96,0
FRSM,4/30/13,980.9583333,0.200875278,980,981,96,0
FRSM,5/1/13,981.5416667,0.500876425,981,982,96,0
FRSM,5/2/13,982.0833333,0.763188142,981,983,96,0
FRSM,5/3/13,978.5416667,0.766628527,978,980,96,0
FRSM,5/4/13,978.4583333,0.500876425,978,979,96,0
FRSM,5/5/13,976.1666667,1.111345005,975,978,96,0
FRSM,5/6/13,975.0833333,0.574303545,974,976,96,0
FRSM,5/7/13,969.8333333,1.873171623,966,973,96,0
FRSM,5/8/13,965.7916667,1.534972427,964,968,96,0
FRSM,5/9/13,972.125,3.31265516,968,978,96,0
FRSM,5/10/13,977.9583333,2.554322103,973,981,96,0
FRSM,5/11/13,972.125,1.401127366,970,975,96,0
FRSM,5/12/13,976.7916667,1.045458013,975,978,96,0
FRSM,5/13/13,979.2916667,1.406126944,978,982,96,0
FRSM,5/14/13,981.25,2.772040859,975,984,96,0
FRSM,5/15/13,967.625,3.293534336,964,974,96,0
FRSM,5/16/13,964.1666667,0.473879102,964,966,96,0
FRSM,5/17/13,969,1.812239092,966,972,96,0
FRSM,5/18/13,976.3333333,1.850557052,972,978,96,0
FRSM,5/19/13,977.7916667,0.40824829,977,978,96,0
FRSM,5/20/13,979,0.410391341,978,980,96,0
FRSM,5/21/13,976.5416667,1.29709527,974,978,96,0
FRSM,5/22/13,971.25,1.056309365,970,974,96,0
FRSM,5/23/13,975.5833333,2.029605441,971,978,96,0
FRSM,5/24/13,970.7916667,2.872434019,968,976,96,0
FRSM,5/25/13,970.9166667,1.739126621,968,973,96,0
FRSM,5/26/13,968.0416667,2.554322103,965,972,96,0
FRSM,5/27/13,974.9583333,5.121506083,966,983,96,0
FRSM,5/28/13,985,0.8705715,983,986,96,0
FRSM,5/29/13,986.7916667,0.86956331,985,988,96,0
FRSM,5/30/13,989.6666667,1.148607089,988,991,96,0